BAW910 EGLL-EDDF

Flight info

Callsign BAW910
Flight time 1h 5m
Altitude 35000
Route DET L6 DVR UL9 KONAN UL607 SPI T180 NIVNU T847 IMCOM IMCOM1A
Aircraft A320/M-SDE3FGHIRWY/LB1

Departure

Time 2026-05-06 18:12
Airport London Heathrow Airport (EGLL)

Arrival

Time 2026-05-06 19:17
Airport Frankfurt Main Airport (EDDF)
Time Latitude Longitude Altitude Speed Heading
2026-05-06 17:39 51.47271 -0.48585 89 ft 0 kts 270°
2026-05-06 18:03 51.47271 -0.48584 86 ft 1 kts 269°
2026-05-06 18:04 51.47271 -0.48546 88 ft 4 kts 269°
2026-05-06 18:04 51.47271 -0.48511 89 ft 4 kts 263°
2026-05-06 18:04 51.47280 -0.48478 91 ft 4 kts 203°
2026-05-06 18:04 51.47304 -0.48473 87 ft 4 kts 179°
2026-05-06 18:05 51.47310 -0.48473 88 ft 0 kts 179°
2026-05-06 18:06 51.47309 -0.48473 89 ft 1 kts 179°
2026-05-06 18:06 51.47293 -0.48473 90 ft 4 kts 180°
2026-05-06 18:07 51.47258 -0.48473 89 ft 6 kts 180°
2026-05-06 18:07 51.47248 -0.48473 87 ft 0 kts 180°
2026-05-06 18:07 51.47243 -0.48473 87 ft 3 kts 179°
2026-05-06 18:08 51.47206 -0.48472 87 ft 7 kts 180°
2026-05-06 18:08 51.47150 -0.48472 87 ft 9 kts 180°
2026-05-06 18:08 51.47079 -0.48471 89 ft 12 kts 180°
2026-05-06 18:08 51.46990 -0.48470 89 ft 14 kts 179°
2026-05-06 18:09 51.46885 -0.48469 88 ft 16 kts 179°
2026-05-06 18:09 51.46763 -0.48468 86 ft 19 kts 179°
2026-05-06 18:09 51.46645 -0.48466 86 ft 10 kts 180°
2026-05-06 18:09 51.46587 -0.48467 87 ft 0 kts 180°
2026-05-06 18:10 51.46575 -0.48467 86 ft 3 kts 180°
2026-05-06 18:10 51.46533 -0.48468 86 ft 8 kts 180°
2026-05-06 18:11 51.46481 -0.48431 88 ft 10 kts 110°
2026-05-06 18:11 51.46480 -0.48277 88 ft 32 kts 89°
2026-05-06 18:11 51.46483 -0.47515 86 ft 101 kts 90°
2026-05-06 18:11 51.46485 -0.46098 89 ft 151 kts 90°
2026-05-06 18:12 51.46495 -0.44380 625 ft 154 kts 86°
2026-05-06 18:12 51.46499 -0.42645 1268 ft 158 kts 88°
2026-05-06 18:12 51.46160 -0.40877 1642 ft 183 kts 123°
2026-05-06 18:12 51.45344 -0.39155 1962 ft 203 kts 121°
2026-05-06 18:13 51.44554 -0.37146 2356 ft 222 kts 118°
2026-05-06 18:13 51.43775 -0.34891 2869 ft 236 kts 109°
2026-05-06 18:13 51.43340 -0.32327 3635 ft 241 kts 99°
2026-05-06 18:13 51.42965 -0.29697 4471 ft 244 kts 101°
2026-05-06 18:14 51.42583 -0.27028 5268 ft 248 kts 101°
2026-05-06 18:14 51.42206 -0.24299 5930 ft 254 kts 99°
2026-05-06 18:14 51.41827 -0.21514 6011 ft 255 kts 101°
2026-05-06 18:14 51.41452 -0.18750 6007 ft 254 kts 101°
2026-05-06 18:15 51.41076 -0.15994 6002 ft 253 kts 101°
2026-05-06 18:15 51.40705 -0.13276 6007 ft 253 kts 101°
2026-05-06 18:15 51.40322 -0.10480 6009 ft 254 kts 100°
2026-05-06 18:15 51.39940 -0.07714 6004 ft 254 kts 101°
2026-05-06 18:16 51.39560 -0.04928 6369 ft 256 kts 101°
2026-05-06 18:16 51.39192 -0.02089 6889 ft 270 kts 101°
2026-05-06 18:16 51.38788 0.00905 7644 ft 278 kts 102°
2026-05-06 18:16 51.38364 0.03916 8469 ft 284 kts 102°
2026-05-06 18:17 51.37918 0.07030 9292 ft 291 kts 102°
2026-05-06 18:17 51.37461 0.10217 10115 ft 296 kts 102°
2026-05-06 18:17 51.36987 0.13550 10436 ft 319 kts 102°
2026-05-06 18:17 51.36478 0.17139 10672 ft 342 kts 102°
2026-05-06 18:18 51.35938 0.20960 11029 ft 358 kts 102°
2026-05-06 18:18 51.35386 0.24874 11686 ft 364 kts 102°
2026-05-06 18:18 51.34817 0.28899 12371 ft 368 kts 102°
2026-05-06 18:18 51.34247 0.32918 13078 ft 372 kts 102°
2026-05-06 18:19 51.33675 0.36926 13808 ft 376 kts 102°
2026-05-06 18:19 51.33087 0.41026 14433 ft 379 kts 102°
2026-05-06 18:19 51.32494 0.45162 15045 ft 383 kts 102°
2026-05-06 18:19 51.31897 0.49323 15673 ft 386 kts 103°
2026-05-06 18:20 51.31294 0.53523 16277 ft 389 kts 103°
2026-05-06 18:20 51.30682 0.57766 16909 ft 393 kts 103°
2026-05-06 18:20 51.30040 0.62033 17542 ft 396 kts 104°
2026-05-06 18:20 51.29311 0.66301 18184 ft 400 kts 106°
2026-05-06 18:21 51.28518 0.70589 18754 ft 404 kts 107°
2026-05-06 18:21 51.27693 0.74895 19354 ft 407 kts 107°
2026-05-06 18:21 51.26859 0.79236 19963 ft 411 kts 107°
2026-05-06 18:21 51.26039 0.83563 20530 ft 414 kts 107°
2026-05-06 18:22 51.25211 0.87991 21088 ft 417 kts 107°
2026-05-06 18:22 51.24384 0.92452 21617 ft 420 kts 107°
2026-05-06 18:22 51.23555 0.96948 22141 ft 423 kts 107°
2026-05-06 18:22 51.22723 1.01469 22655 ft 426 kts 107°
2026-05-06 18:23 51.21882 1.06015 23151 ft 429 kts 107°
2026-05-06 18:23 51.21029 1.10594 23623 ft 432 kts 107°
2026-05-06 18:23 51.20168 1.15197 24022 ft 434 kts 107°
2026-05-06 18:23 51.19301 1.19826 24421 ft 437 kts 107°
2026-05-06 18:24 51.18424 1.24479 24806 ft 439 kts 107°
2026-05-06 18:24 51.17539 1.29144 25191 ft 441 kts 107°
2026-05-06 18:24 51.16665 1.33859 25560 ft 444 kts 104°
2026-05-06 18:24 51.16126 1.38703 25931 ft 446 kts 95°
2026-05-06 18:25 51.15896 1.43584 26302 ft 448 kts 94°
2026-05-06 18:25 51.15666 1.48549 26665 ft 451 kts 94°
2026-05-06 18:25 51.15428 1.53547 27027 ft 453 kts 95°
2026-05-06 18:25 51.15185 1.58568 27397 ft 456 kts 95°
2026-05-06 18:26 51.14938 1.63608 27752 ft 458 kts 95°
2026-05-06 18:26 51.14687 1.68682 28106 ft 460 kts 95°
2026-05-06 18:26 51.14433 1.73775 28451 ft 462 kts 95°
2026-05-06 18:26 51.14174 1.78889 28784 ft 464 kts 95°
2026-05-06 18:27 51.13909 1.84023 29112 ft 467 kts 95°
2026-05-06 18:27 51.13642 1.89170 29552 ft 466 kts 95°
2026-05-06 18:27 51.13372 1.94307 30042 ft 464 kts 95°
2026-05-06 18:27 51.13102 1.99423 30472 ft 463 kts 95°
2026-05-06 18:28 51.12834 2.04523 30879 ft 462 kts 95°
2026-05-06 18:28 51.12567 2.09615 31295 ft 461 kts 95°
2026-05-06 18:28 51.12271 2.14687 31724 ft 460 kts 99°
2026-05-06 18:28 51.11587 2.19657 32115 ft 459 kts 104°
2026-05-06 18:29 51.10831 2.24588 32547 ft 458 kts 104°
2026-05-06 18:29 51.10069 2.29498 32973 ft 457 kts 104°
2026-05-06 18:29 51.09300 2.34406 33365 ft 457 kts 104°
2026-05-06 18:29 51.08529 2.39310 33813 ft 456 kts 104°
2026-05-06 18:30 51.07760 2.44198 34188 ft 456 kts 104°
2026-05-06 18:30 51.06987 2.49090 34484 ft 457 kts 104°
2026-05-06 18:30 51.06212 2.53984 34812 ft 456 kts 104°
2026-05-06 18:30 51.05434 2.58887 34938 ft 458 kts 104°
2026-05-06 18:31 51.03860 2.68760 34952 ft 462 kts 104°
2026-05-06 18:31 51.02281 2.78641 34949 ft 462 kts 104°
2026-05-06 18:32 51.00701 2.88465 34960 ft 461 kts 105°
2026-05-06 18:32 50.99093 2.98346 34956 ft 462 kts 105°
2026-05-06 18:33 50.97480 3.08218 34947 ft 461 kts 105°
2026-05-06 18:33 50.95866 3.18069 34950 ft 461 kts 105°
2026-05-06 18:34 50.94240 3.27925 34927 ft 462 kts 105°
2026-05-06 18:34 50.92618 3.37707 34938 ft 461 kts 105°
2026-05-06 18:35 50.90984 3.47529 34935 ft 461 kts 105°
2026-05-06 18:35 50.89337 3.57342 34931 ft 460 kts 105°
2026-05-06 18:36 50.87678 3.67128 34928 ft 460 kts 106°
2026-05-06 18:36 50.86013 3.76913 34930 ft 460 kts 106°
2026-05-06 18:37 50.84629 3.85031 34929 ft 460 kts 106°
2026-05-06 18:37 50.82676 3.96449 34936 ft 459 kts 106°
2026-05-06 18:38 50.80992 4.06200 34941 ft 459 kts 106°
2026-05-06 18:38 50.79295 4.15938 34935 ft 459 kts 106°
2026-05-06 18:39 50.77604 4.25603 34944 ft 459 kts 106°
2026-05-06 18:40 50.75044 4.40194 34943 ft 459 kts 106°
2026-05-06 18:40 50.73321 4.49927 34940 ft 459 kts 106°
2026-05-06 18:41 50.71592 4.59625 34941 ft 459 kts 107°
2026-05-06 18:41 50.69855 4.69332 34923 ft 459 kts 107°
2026-05-06 18:42 50.68115 4.79014 34922 ft 459 kts 107°
2026-05-06 18:42 50.66363 4.88697 34921 ft 459 kts 107°
2026-05-06 18:43 50.64900 4.96739 34918 ft 459 kts 107°
2026-05-06 18:43 50.63135 5.06412 34926 ft 459 kts 107°
2026-05-06 18:44 50.61359 5.16077 34911 ft 459 kts 107°
2026-05-06 18:44 50.59573 5.25737 34911 ft 459 kts 107°
2026-05-06 18:45 50.57800 5.35312 34922 ft 459 kts 108°
2026-05-06 18:45 50.56006 5.44944 34916 ft 459 kts 108°
2026-05-06 18:46 50.54205 5.54602 34916 ft 459 kts 108°
2026-05-06 18:46 50.52390 5.64215 34911 ft 458 kts 108°
2026-05-06 18:46 50.51479 5.69018 34704 ft 458 kts 108°
2026-05-06 18:47 50.50570 5.73801 34462 ft 457 kts 108°
2026-05-06 18:47 50.49662 5.78578 34217 ft 456 kts 108°
2026-05-06 18:47 50.48765 5.83280 33992 ft 456 kts 108°
2026-05-06 18:47 50.47853 5.88049 33730 ft 455 kts 108°
2026-05-06 18:48 50.46940 5.92803 33451 ft 455 kts 108°
2026-05-06 18:48 50.46028 5.97556 33172 ft 455 kts 108°
2026-05-06 18:48 50.45113 6.02321 32898 ft 455 kts 108°
2026-05-06 18:48 50.44198 6.07074 32621 ft 455 kts 108°
2026-05-06 18:49 50.43279 6.11826 32090 ft 454 kts 108°
2026-05-06 18:49 50.42354 6.16600 31023 ft 459 kts 108°
2026-05-06 18:49 50.41424 6.21385 30013 ft 460 kts 108°
2026-05-06 18:49 50.40491 6.26171 28776 ft 455 kts 108°
2026-05-06 18:50 50.39578 6.30848 27697 ft 442 kts 108°
2026-05-06 18:50 50.38692 6.35373 27040 ft 425 kts 109°
2026-05-06 18:50 50.37826 6.39775 26367 ft 424 kts 108°
2026-05-06 18:50 50.36951 6.44190 25669 ft 423 kts 109°
2026-05-06 18:51 50.36072 6.48615 25068 ft 431 kts 109°
2026-05-06 18:51 50.35167 6.53124 24867 ft 436 kts 109°
2026-05-06 18:51 50.34255 6.57637 24868 ft 433 kts 109°
2026-05-06 18:51 50.33351 6.62085 24880 ft 439 kts 109°
2026-05-06 18:52 50.32409 6.66687 24863 ft 447 kts 109°
2026-05-06 18:52 50.31456 6.71334 24613 ft 448 kts 109°
2026-05-06 18:52 50.30507 6.75972 24370 ft 448 kts 109°
2026-05-06 18:52 50.29556 6.80616 24130 ft 447 kts 109°
2026-05-06 18:53 50.28608 6.85236 23799 ft 444 kts 109°
2026-05-06 18:53 50.27671 6.89783 23004 ft 441 kts 109°
2026-05-06 18:53 50.26731 6.94332 22278 ft 436 kts 109°
2026-05-06 18:53 50.25806 6.98816 21570 ft 431 kts 109°
2026-05-06 18:54 50.24888 7.03243 20874 ft 427 kts 109°
2026-05-06 18:54 50.23973 7.07641 20203 ft 424 kts 109°
2026-05-06 18:54 50.23065 7.12004 19540 ft 421 kts 109°
2026-05-06 18:54 50.22160 7.16342 18914 ft 419 kts 109°
2026-05-06 18:55 50.21257 7.20662 18309 ft 417 kts 109°
2026-05-06 18:55 50.20356 7.24954 17652 ft 416 kts 109°
2026-05-06 18:55 50.19471 7.29150 17060 ft 403 kts 109°
2026-05-06 18:55 50.18614 7.33209 16479 ft 384 kts 109°
2026-05-06 18:56 50.17797 7.37083 15919 ft 372 kts 109°
2026-05-06 18:56 50.16984 7.40934 15347 ft 374 kts 110°
2026-05-06 18:56 50.16169 7.44776 14764 ft 371 kts 109°
2026-05-06 18:56 50.15362 7.48575 14152 ft 368 kts 109°
2026-05-06 18:57 50.14561 7.52345 13546 ft 364 kts 110°
2026-05-06 18:57 50.13770 7.56070 12884 ft 361 kts 110°
2026-05-06 18:57 50.12980 7.59767 12281 ft 359 kts 109°
2026-05-06 18:57 50.12193 7.63443 11669 ft 356 kts 110°
2026-05-06 18:58 50.11372 7.67071 11076 ft 359 kts 115°
2026-05-06 18:58 50.10160 7.70557 10836 ft 370 kts 124°
2026-05-06 18:58 50.08915 7.74090 10836 ft 376 kts 109°
2026-05-06 18:58 50.08575 7.78107 10832 ft 377 kts 86°
2026-05-06 18:59 50.09038 7.82078 10838 ft 377 kts 77°
2026-05-06 18:59 50.09592 7.86068 10839 ft 377 kts 78°
2026-05-06 18:59 50.10103 7.90073 10837 ft 377 kts 79°
2026-05-06 18:59 50.10587 7.94093 10841 ft 377 kts 80°
2026-05-06 19:00 50.11061 7.98115 10840 ft 377 kts 80°
2026-05-06 19:00 50.11534 8.02134 10842 ft 377 kts 80°
2026-05-06 19:00 50.12013 8.06165 10851 ft 377 kts 80°
2026-05-06 19:00 50.12495 8.10181 10844 ft 377 kts 79°
2026-05-06 19:01 50.12980 8.14200 10857 ft 377 kts 79°
2026-05-06 19:01 50.13458 8.18164 10853 ft 377 kts 80°
2026-05-06 19:01 50.13941 8.22179 10853 ft 377 kts 80°
2026-05-06 19:01 50.14424 8.26208 10850 ft 378 kts 80°
2026-05-06 19:02 50.14904 8.30237 10855 ft 377 kts 80°
2026-05-06 19:02 50.15382 8.34254 10854 ft 377 kts 80°
2026-05-06 19:02 50.15859 8.38279 10838 ft 377 kts 80°
2026-05-06 19:02 50.16335 8.42308 10836 ft 377 kts 80°
2026-05-06 19:03 50.16809 8.46335 10838 ft 377 kts 80°
2026-05-06 19:03 50.17283 8.50368 10826 ft 377 kts 80°
2026-05-06 19:03 50.17755 8.54402 10835 ft 378 kts 81°
2026-05-06 19:03 50.18223 8.58428 10829 ft 378 kts 81°
2026-05-06 19:04 50.18689 8.62460 10840 ft 378 kts 81°
2026-05-06 19:04 50.19149 8.66439 10838 ft 377 kts 81°
2026-05-06 19:04 50.19617 8.70472 10839 ft 377 kts 81°
2026-05-06 19:04 50.20082 8.74495 10829 ft 374 kts 81°
2026-05-06 19:05 50.20528 8.78389 10823 ft 353 kts 81°
2026-05-06 19:05 50.20945 8.82042 10827 ft 332 kts 81°
2026-05-06 19:05 50.21342 8.85505 10783 ft 317 kts 80°
2026-05-06 19:05 50.21881 8.88810 10536 ft 312 kts 72°
2026-05-06 19:06 50.22609 8.91968 10282 ft 306 kts 70°
2026-05-06 19:06 50.23350 8.95067 10000 ft 303 kts 70°
2026-05-06 19:06 50.24080 8.98108 9606 ft 301 kts 70°
2026-05-06 19:06 50.24803 9.01121 9181 ft 291 kts 70°
2026-05-06 19:07 50.25511 9.04077 8752 ft 283 kts 70°
2026-05-06 19:07 50.26180 9.06867 8344 ft 275 kts 70°
2026-05-06 19:07 50.26819 9.09650 7927 ft 268 kts 77°
2026-05-06 19:07 50.26861 9.12475 7518 ft 257 kts 108°
2026-05-06 19:08 50.26043 9.14850 7131 ft 246 kts 139°
2026-05-06 19:08 50.24619 9.16177 6731 ft 237 kts 171°
2026-05-06 19:08 50.23026 9.16119 6347 ft 228 kts 203°
2026-05-06 19:08 50.21692 9.14844 5941 ft 226 kts 221°
2026-05-06 19:09 50.20505 9.13215 5511 ft 228 kts 224°
2026-05-06 19:09 50.19341 9.11551 5114 ft 226 kts 224°
2026-05-06 19:09 50.18232 9.09955 4982 ft 211 kts 224°
2026-05-06 19:09 50.17170 9.08432 4992 ft 206 kts 224°
2026-05-06 19:10 50.16128 9.06939 4985 ft 197 kts 224°
2026-05-06 19:10 50.15199 9.05481 5020 ft 186 kts 237°
2026-05-06 19:10 50.14649 9.03676 5001 ft 183 kts 248°
2026-05-06 19:10 50.14204 9.01876 4994 ft 174 kts 249°
2026-05-06 19:11 50.13786 9.00112 4996 ft 173 kts 250°
2026-05-06 19:11 50.13367 8.98332 4711 ft 178 kts 250°
2026-05-06 19:11 50.12938 8.96497 4328 ft 182 kts 250°
2026-05-06 19:11 50.12500 8.94630 3945 ft 185 kts 250°
2026-05-06 19:12 50.12074 8.92812 3947 ft 173 kts 251°
2026-05-06 19:12 50.11661 8.91051 3979 ft 172 kts 250°
2026-05-06 19:12 50.11254 8.89317 3994 ft 168 kts 251°
2026-05-06 19:12 50.10863 8.87654 3998 ft 161 kts 251°
2026-05-06 19:13 50.10483 8.86035 3972 ft 161 kts 251°
2026-05-06 19:13 50.10098 8.84398 3832 ft 161 kts 251°
2026-05-06 19:13 50.09714 8.82770 3640 ft 160 kts 251°
2026-05-06 19:13 50.09332 8.81148 3439 ft 160 kts 251°
2026-05-06 19:14 50.08947 8.79515 3228 ft 162 kts 251°
2026-05-06 19:14 50.08562 8.77883 3005 ft 160 kts 252°
2026-05-06 19:14 50.08177 8.76252 2792 ft 160 kts 252°
2026-05-06 19:14 50.07794 8.74630 2569 ft 159 kts 252°
2026-05-06 19:15 50.07410 8.73008 2363 ft 160 kts 253°
2026-05-06 19:15 50.07025 8.71383 2137 ft 160 kts 253°
2026-05-06 19:15 50.06642 8.69765 1919 ft 159 kts 253°
2026-05-06 19:15 50.06267 8.68183 1717 ft 157 kts 253°
2026-05-06 19:16 50.05887 8.66580 1493 ft 158 kts 252°
2026-05-06 19:16 50.05507 8.64978 1283 ft 158 kts 252°
2026-05-06 19:16 50.05126 8.63375 1048 ft 158 kts 251°
2026-05-06 19:16 50.04744 8.61767 828 ft 160 kts 252°
2026-05-06 19:17 50.04363 8.60155 655 ft 158 kts 251°
2026-05-06 19:17 50.03980 8.58545 407 ft 158 kts 251°
2026-05-06 19:17 50.03642 8.57126 357 ft 108 kts 250°
2026-05-06 19:17 50.03471 8.56401 358 ft 40 kts 250°
2026-05-06 19:18 50.03438 8.56071 349 ft 24 kts 275°
2026-05-06 19:18 50.03456 8.55891 345 ft 10 kts 279°
2026-05-06 19:18 50.03469 8.55770 348 ft 13 kts 279°
2026-05-06 19:18 50.03482 8.55648 345 ft 0 kts 279°
2026-05-06 19:19 50.03483 8.55635 345 ft 3 kts 279°
2026-05-06 19:19 50.03489 8.55594 345 ft 5 kts 291°
2026-05-06 19:19 50.03519 8.55598 350 ft 5 kts 42°
2026-05-06 19:19 50.03537 8.55661 352 ft 7 kts 68°
2026-05-06 19:20 50.03562 8.55764 347 ft 16 kts 70°
2026-05-06 19:20 50.03611 8.55968 357 ft 22 kts 69°
2026-05-06 19:20 50.03667 8.56203 359 ft 24 kts 69°
2026-05-06 19:20 50.03730 8.56464 355 ft 27 kts 70°
2026-05-06 19:21 50.03798 8.56751 356 ft 29 kts 69°
2026-05-06 19:21 50.03871 8.57056 361 ft 31 kts 71°
2026-05-06 19:21 50.03945 8.57367 364 ft 30 kts 69°
2026-05-06 19:21 50.04020 8.57682 368 ft 32 kts 70°
2026-05-06 19:22 50.04100 8.58010 370 ft 34 kts 69°
2026-05-06 19:22 50.04184 8.58360 375 ft 35 kts 70°
2026-05-06 19:22 50.04272 8.58727 371 ft 37 kts 69°
2026-05-06 19:22 50.04360 8.59095 377 ft 36 kts 69°
2026-05-06 19:23 50.04431 8.59393 376 ft 19 kts 69°
2026-05-06 19:23 50.04520 8.59471 374 ft 16 kts 359°
2026-05-06 19:23 50.04547 8.59469 374 ft 0 kts 357°
2026-05-06 19:24 50.04553 8.59469 374 ft 3 kts 357°
2026-05-06 19:25 50.04599 8.59465 373 ft 10 kts 357°
2026-05-06 19:25 50.04683 8.59451 372 ft 14 kts 343°
2026-05-06 19:25 50.04784 8.59394 372 ft 17 kts 340°
2026-05-06 19:25 50.04916 8.59341 348 ft 22 kts 344°
2026-05-06 19:26 50.05044 8.59260 365 ft 12 kts 319°
2026-05-06 19:26 50.05055 8.59215 362 ft 0 kts 269°
2026-05-06 19:26 50.05048 8.59201 362 ft 3 kts 225°
2026-05-06 19:26 50.05027 8.59199 365 ft 3 kts 166°
2026-05-06 19:27 50.05008 8.59210 362 ft 3 kts 160°
2026-05-06 19:27 50.04994 8.59218 364 ft 0 kts 159°